FENGYUN 1C DEB, 38512

Orbit data source: Space-Track

FENGYUN 1C DEB, 38512 is space debris in SSO originally from a launch on Mon, 10 May 1999 UTC launched from the Taiyaun Space Center, China (TSC). Fengyun 1C debris stems from the Chinese weather satellite Fengyun-1C, which was intentionally destroyed by a Chinese anti-satellite missile in 2007. This event dramatically increased the amount of space debris, with thousands of trackable fragments posing hazards to satellites and human spaceflight. The Fengyun 1C debris cloud has become a focal point in discussions about space sustainability and the need for international regulations to prevent the creation of new debris.

Loading next visibility...
Identifier
38512, 1999-025ESX
Orbit
SSO
Country
Flag of CNCN / PRC
Related business
Manufacturer
Unknown
Mission
Spacecraft
Bus & Motor
Unknown
Mass
Unknown
Launch date (UTC)
1999-05-10 (27 years ago)
Launch vehicle
Unknown
Launch site
Taiyaun Space Center, China (TSC)
Object type
Payload
Rocket body
Debris
Shape & HBR
Unknown shape, 0.1 m
Radar Cross Section
Small (<0.1 m²)

Expand to show TLE details & history
Last TLE update: 18 hours ago

TLE from 18 hours ago
0 FENGYUN 1C DEB
1 38512U 99025ESX 26107.06787016  .00000900  00000-0  82192-3 0  9999
2 38512  98.3731 338.6307 0226623 127.3345 234.8693 13.74339072612911
Epoch: 2026-04-17T01:37Z
TLE epoch observation values (Epoch: 2026-04-17T01:37:43.981Z)
Latitude
0.00006°
Longitude
108.99106°
Altitude
1,085.408 km
Speed
7.26 km/s
True Right ascension
22h 34m 31s
True Declination
0° 00' 00"
Sunlit
Object was in daylight at epoch
Visualization orbit readout
Latitude
Unknown
Longitude
Unknown
Altitude
Unknown
Speed
Unknown
Apparent Right ascension
Unknown
Apparent Declination
Unknown
Sunlit
N/A
Visualization observer readout
Local Sidereal Time
01:52:39
Azimuth
Unknown
Elevation
Unknown
Doppler factor
Unknown
Orbital elements
Apogee altitude
1,148.017 km
Perigee altitude
814.456 km
Semi-major axis
7,359.374 km
Eccentricity
0.02266
Inclination
98.3731°
RAAN
338.6307°
Arg. of periapsis
127.3345°
True anomaly
232.77999°
Mean anomaly
234.8693°
Eccentric anomaly
233.82122°
Mean motion
3.43781 °/min
Orbital period
104.72 mins
BSTAR
0.00082192
Loading maneuver chart data...
Computing Atmospheric mass density...
Loading historical data...
Loading historical data...
Loading historical data...
Loading historical data...
Loading historical data...
Loading historical data...
Loading historical data...

Documentation

Showing up to 5 results
|